Location: Austin
(30.3000°N, 97.7500°W)
Time: 23:24:38
(UTC-05:00)

Delta 198 - Pass Details

Date: 08 April 2026
Orbit: 449 x 914 km, 24.8° (Epoch: 20 April)

Event Time Altitude Azimuth Distance (km) Brightness Sun altitude
Rises 20:41:14 0° 262° (W) 2,693 8.2 -10.7°
Reaches altitude 10° 20:43:50 10° 251° (WSW) 1,728 6.7 -11.3°
Maximum altitude 20:47:12 27° 192° (SSW) 948 4.5 -12.0°
Enters shadow 20:49:28 15° 141° (SE) 1,321 4.8 -12.4°
